Flag for United Kingdom Weather past 2 weeks in Brentwood, England, United Kingdom

Now
38 °F

Chilly.


Feels Like: 28 °F
Forecast: 36 / 41 °F
Wind: 18 mph from West

Location: Gravesend-Broadness

Current Time: Jan 29, 2015 at 12:27:54 AM

Latest Report: Jan 28, 2015 at 11:00 PM


Visibility: N/A

Pressure: 29.50 "Hg

Humidity: 75%

Dew point: 31 °F

Location of BrentwoodLocation

Historic Weather in Brentwood — Graph

°F

Brentwood temperature yesterday

Maximum temperature yesterday: 50 °F (at 11:00 AM)
Minimum temperature yesterday: 38 °F (at 11:00 PM)
Average temperature yesterday: 44 °F

Past Weeks' High & Low Weather Summary

 TemperatureHumidityPressure
High51 °F (Jan 15, 3:00 AM)98% (Jan 20, 10:00 AM)30.47 "Hg (Jan 20, 10:00 AM)
Low23 °F (Jan 20, 5:00 AM)59% (Jan 28, 6:00 PM)29.18 "Hg (Jan 15, 3:00 AM)
Average40 °F82%29.93 "Hg
* Reported Jan 13 11:00 PM — Jan 28 11:00 PM, Brentwood, Weather by CustomWeather, © 2014

Note: Actual official high and low records may vary slightly from our data, if they occured in-between our weather recording intervals... More about our weather records

Advertising

Brentwood weather history for previous 24 hours

 ConditionsComfort  
Time TempWeatherWind HumidityBarometerVisibility
11:00 PM
Jan 28
38 °FChilly.18 mph75%29.50 "HgN/A
10:00 PM38 °FChilly.16 mph72%29.55 "HgN/A
9:00 PM39 °FChilly.17 mph69%29.57 "HgN/A
8:00 PM40 °FChilly.18 mph63%29.58 "HgN/A
7:00 PM41 °FQuite cool.20 mph59%29.59 "HgN/A
6:00 PM42 °FQuite cool.20 mph59%29.59 "HgN/A
5:00 PM42 °FQuite cool.18 mph60%29.58 "HgN/A
4:00 PM43 °FQuite cool.16 mph62%29.57 "HgN/A
3:00 PM44 °FQuite cool.22 mph65%29.55 "HgN/A
2:00 PM41 °FQuite cool.28 mph86%29.50 "HgN/A
1:00 PM44 °FQuite cool.18 mph86%29.50 "HgN/A
12:00 PM50 °FCool.29 mph74%29.47 "HgN/A
11:00 AM50 °FCool.18 mph94%29.53 "HgN/A
10:00 AM50 °FCool.18 mph93%29.57 "HgN/A
9:00 AM49 °FCool.21 mph92%29.65 "HgN/A
8:00 AM47 °FCool.14 mph95%29.70 "HgN/A
7:00 AM47 °FCool.14 mph88%29.76 "HgN/A
6:00 AM46 °FCool.15 mph87%29.82 "HgN/A
5:00 AM45 °FCool.13 mph84%29.88 "HgN/A
4:00 AM45 °FCool.14 mph80%29.93 "HgN/A
3:00 AM44 °FQuite cool.13 mph84%29.98 "HgN/A
2:00 AM44 °FQuite cool.15 mph81%30.01 "HgN/A
1:00 AM44 °FQuite cool.13 mph78%30.05 "HgN/A
12:00 AM44 °FQuite cool.10 mph76%30.10 "HgN/A
Weather by CustomWeather, © 2014

See weather overviewHow to use our weather pages